Regional Weather Roundup
Issued by NWS Portland, ME

Current Version | Previous Version | Text Only | Print | Product List | Glossary On
Versions: 1 2 3 4 5 6 7 8 9 10 11 12 13 14 15 16 17 18 19 20 21 22 23 24 25 26 27 28 29 30 31 32 33 34 35 36 37 38 39 40 41 42 43 44 45 46 47 48 49 50
219
ASUS41 KGYX 222010
RWRGYX
WEATHER ROUNDUP FOR MAINE AND NEW HAMPSHIRE
NATIONAL WEATHER SERVICE GRAY ME
400 PM EDT FRI SEP 22 2017

MEZ002-005-006-010-012-015-018-020-021-024-026-027-029-222100-
MAINE

CITY           SKY/WX    TMP DP  RH WIND       PRES   REMARKS
PORTLAND       CLOUDY    69  51  52 N12       30.07S
SANFORD        CLOUDY    69  53  56 N13       30.06S
BAR HARBOR     CLOUDY    71  46  40 NE8       30.08S
WISCASSET      CLOUDY    71  50  47 VRB5      30.08F
ROCKLAND       CLOUDY    67  51  56 NE7       30.07S
FRYEBURG       CLOUDY    73  46  38 E3        30.09F
LEWISTONAUBURN CLOUDY    71  49  45 N13       30.08F
AUGUSTA        CLOUDY    72  47  40 N10       30.09F
WATERVILLE     MOSUNNY   73  48  41 VRB6      30.06F
BANGOR         MOSUNNY   78  46  32 N8        30.08F
GREENVILLE       N/A     71  42  35 NW7       30.11F
MILLINOCKET    SUNNY     75  38  26 N5        30.12F
HOULTON        SUNNY     74  42  31 VRB3      30.10F
PRESQUE ISLE   SUNNY     73  44  35 VRB3      30.12F
FRENCHVILLE    SUNNY     71  44  37 VRB5      30.11F
CARIBOU        SUNNY     74  45  35 CALM      30.11F
$$

NHZ002-005-008-009-011-012-014-222100-
NEW HAMPSHIRE

CITY           SKY/WX    TMP DP  RH WIND       PRES   REMARKS
PORTSMOUTH     CLOUDY    68  55  63 NE10G21   30.02S
ROCHESTER      PTSUNNY   69  50  50 N12G22    30.05S
NASHUA         CLOUDY    71  55  56 N7G14     30.03S
MANCHESTER     CLOUDY    72  53  51 N17G24    30.02S
CONCORD        CLOUDY    71  52  50 N10       30.06S
LACONIA        CLOUDY    70  46  42 NE7       30.07F
PLYMOUTH       CLOUDY    72  47  41 CALM      30.07S
BERLIN         SUNNY     78  26  14 E6        30.11F
WHITEFIELD     SUNNY     78  40  25 E9        30.09F
JAFFREY        PTSUNNY   68  53  58 N8G22     30.06F
KEENE          CLOUDY    72  54  53 NE7       30.05F
LEBANON        CLOUDY    78  52  40 N6        30.06F
MT WASHINGTON  MOSUNNY   54  52  94 E13         N/A
$$

VTZ005-007-008-222100-
VERMONT

CITY           SKY/WX    TMP DP  RH WIND       PRES   REMARKS
ST JOHNSBURY     N/A     79  40  24 MISG      30.06F
MONTPELIER     SUNNY     77  47  34 N5        30.13F
BURLINGTON     MOSUNNY   78  55  44 NW9       30.08F
$$

MAZ007-012-024-CTZ003-RIZ002-NYZ038-NYZ072-222100-
SOUTHERN NEW ENGLAND AND NY

CITY           SKY/WX    TMP DP  RH WIND       PRES   REMARKS
BOSTON         LGT RAIN  60  57  89 N21G32    29.99S FOG
WORCESTER      CLOUDY    65  53  65 NE14G22   30.01S
NANTUCKET      CLOUDY    62  62 100 NE26G38   29.78S FOG
PROVIDENCE     LGT RAIN  61  59  93 N20G29    29.95S FOG
HARTFORD       PTSUNNY   77  54  44 N20G28    29.97F
ALBANY         CLOUDY    78  51  38 N9        30.05F
NEW YORK CITY  MOSUNNY   80  57  45 N17G24    29.94S
$$

ANZ081-ANZ082-ANZ150-NHZ014-MEZ023>029-222100-
COASTAL MARINE OBSERVATIONS

STATION/POSITION TIME  TEMP    WIND        PRES    WAVE
                       AIR SEA DIR/SP/G            HT/PER
                 (UTC) (F)     (DEG/KT/KT) (MB)    (FT/S)
MOUNT DESERT ROC 2000   57      30/ 22/ 24 1017.9F
MATINICUS ROCK   1900   57      40/ 21/ 23 1017.5F
ISLE OF SHOALS   1900   61      30/ 21/ 24 1016.1F
JEFFREYS LEDGE   1906      62                N/A    13/ 8
CASHES LEDGE BUO 1850   57 58              1015.7   11/ 9
GEORGES BANK BUO 1850   73 72              1009.2   13/10
$$

.............KEY..............
   WCI - WIND CHILL
   TC  - TEMPERATURE IN CELSIUS
   VSB - VISIBILITY IN MILES
   HX  - HEAT INDEX
   FAIR- INDICATES FEW OR NO CLOUDS BELOW 12,000 FT, WITH NO
         SIGNIFICANT WEATHER AND/OR OBSTRUCTIONS TO VISIBILITY.






USA.gov is the U.S. government's official web portal to all federal, state and local government web resources and services.